Meteo Giornale » Osservazioni meteo Stati Uniti (USA) » Detroit City
ore: 14:53 - Osservazioni Meteo Detroit City
Lat. 42° 24' N Lon. 83° 0' W Alt. 191 metri s.l.m.
33 °C
Sereno
Temp. 24 Ore
23 °C
33 °C
Ovest/Sud-Ovest
14.8 Km/h
Dew point 22 °C
Umidità 52 %
Visibilità 10 Km
Il sole sorge alle ore 06:57
Il sole tramonta alle ore 20:06
| Data e Ora | Cielo e Fenomeni | T °C | DP °C | Um. % | Pres. hPa | Vis. km | Vento km/h | |
|---|---|---|---|---|---|---|---|---|
| Oggi h: 14:53 | Sereno | 33 | 22 | 52 | 1013 | 10 | O/SO 14.8 | |
| Oggi h: 13:53 | Sereno | 33 | 22 | 52 | 1013 | 10 | O 16.7 | |
| Oggi h: 12:53 | Sereno | 31 | 22 | 58 | 1014 | 10 | SO 13 | |
| Oggi h: 11:53 | Sereno | 29 | 22 | 66 | 1015 | 10 | SO 7.4 | |
| Oggi h: 10:53 | Poco Nuvoloso | 28 | 22 | 69 | 1015 | 10 | SO 11.1 | |
| Oggi h: 09:53 | Sereno | 27 | 21 | 69 | 1015 | 10 | O 11.1 | |
| Oggi h: 08:53 | Sereno | 26 | 21 | 73 | 1015 | 10 | O/SO 11.1 | |
| Oggi h: 07:53 | Sereno | 24 | 21 | 83 | 1015 | 14 | O/SO 7.4 | |
| Oggi h: 06:53 | Sereno | 23 | 21 | 88 | 1014 | 10 | SO 9.3 | |
| Oggi h: 05:53 | Sereno | 24 | 21 | 83 | 1014 | 10 | SO 9.3 | |
| Oggi h: 04:53 | Sereno | 24 | 22 | 88 | 1014 | 10 | SO 9.3 | |
| Oggi h: 03:53 | Sereno | 24 | 22 | 88 | 1014 | 10 | SO 13 | |
| Oggi h: 02:53 | Sereno | 24 | 22 | 88 | 1014 | 10 | SO 13 | |
| Oggi h: 01:53 | Sereno | 25 | 22 | 83 | 1014 | 10 | O/SO 16.7 | |
| Oggi h: 00:53 | Sereno | 25 | 21 | 78 | 1014 | 10 | SO 9.3 | |
| Ieri h: 23:53 | Nuvoloso | 25 | 20 | 73 | 1014 | 10 | O/SO 9.3 | |
| Ieri h: 22:53 | Molto Nuvoloso | 24 | 19 | 73 | 1014 | 10 | SO 11.1 | |
| Ieri h: 21:53 | Sereno | 23 | 19 | 78 | 1014 | 10 | S 7.4 | |
| Ieri h: 20:53 | Molto Nuvoloso | 23 | 20 | 83 | 1014 | 10 | S 7.4 | |
| Ieri h: 19:53 | Molto Nuvoloso | 24 | 21 | 83 | 1014 | 10 | S 9.3 | |
| Ieri h: 18:53 | Poco Nuvoloso | 25 | 21 | 78 | 1015 | 10 | S/SO 16.7 | |
| Ieri h: 17:53 | Poco Nuvoloso | 27 | 20 | 65 | 1015 | 10 | S/SO 25.9 | |
| Ieri h: 16:53 | Sereno | 27 | 19 | 61 | 1016 | 10 | E/SE 16.7 | |
| Ieri h: 15:53 | Molto Nuvoloso | 28 | 19 | 58 | 1016 | 10 | E 14.8 | |



